Date String (YYYY-MM-DD hh:mm:ss) UTC,Instrument flags,Ambient pressure (hPa),Sample flow (lpm),Bypass flow (lpm),Sample temperature (°C),Ambient temperature (°C),ASC tube jacket temperature (°C),LED temperature (°C),Box temperature (°C),Sample RH (%),Span deviation,Mass concentration (μg/m³),Mass concentration (μg/m³),Mass concentration (μg/m³)
DateTimeUTC,F1_M11,P_M11,Q1_M11,Q2_M11,T1_M11,T2_M11,T3_M11,T4_M11,T5_M11,U1_M11,ZSPAN_M11,X2_M11,X0_M11,X1_M11
2022-09-24 11:00:00,,0830.2,5.01,0.00,30.6,29.0,00.0,39.4,32.4,11.8,0000.0,0002.71,0004.47,0002.07
2022-09-24 11:01:00,,0830.2,5.00,0.00,30.6,29.1,00.0,39.4,32.4,11.9,0000.0,0002.72,0004.50,0002.09
2022-09-24 11:02:00,,0830.2,5.01,0.00,30.6,29.1,00.0,39.4,32.4,12.0,0000.0,0002.79,0004.69,0002.09
2022-09-24 11:03:00,,0830.2,4.99,0.00,30.6,29.0,00.0,39.4,32.4,12.0,0000.0,0002.86,0005.02,0002.09
2022-09-24 11:04:00,,0830.3,5.01,0.00,30.6,29.0,00.0,39.4,32.4,12.3,0000.0,0002.91,0005.27,0002.08
2022-09-24 11:05:00,,0830.2,4.99,0.00,30.6,29.1,00.0,39.4,32.4,13.0,0000.0,0002.90,0005.27,0002.07
2022-09-24 11:06:00,,0830.2,5.01,0.00,30.6,29.0,00.0,39.4,32.4,12.9,0000.0,0002.86,0005.17,0002.06
2022-09-24 11:07:00,,0830.1,4.98,0.00,30.6,29.0,00.0,39.4,32.4,12.4,0000.0,0002.87,0005.14,0002.06
2022-09-24 11:08:00,,0830.1,5.01,0.00,30.6,29.0,00.0,39.4,32.4,11.8,0000.0,0002.86,0005.30,0002.04
2022-09-24 11:09:00,,0830.1,4.99,0.00,30.6,29.0,00.0,39.4,32.4,11.6,0000.0,0002.92,0005.54,0002.04
2022-09-24 11:10:00,,0830.1,5.01,0.00,30.6,29.0,00.0,39.4,32.4,11.4,0000.0,0002.96,0005.92,0002.03
2022-09-24 11:11:00,,0830.1,4.99,0.00,30.6,29.0,00.0,39.4,32.4,11.5,0000.0,0002.97,0006.04,0002.02
2022-09-24 11:12:00,,0830.0,5.02,0.00,30.6,29.0,00.0,39.4,32.4,11.9,0000.0,0002.95,0006.00,0002.01
2022-09-24 11:13:00,,0829.9,4.99,0.00,30.6,29.0,00.0,39.4,32.4,11.8,0000.0,0002.91,0005.85,0002.01
2022-09-24 11:14:00,,0829.9,5.01,0.00,30.6,28.9,00.0,39.4,32.3,12.1,0000.0,0002.86,0005.64,0002.01
2022-09-24 11:15:00,,0829.9,5.01,0.00,30.5,28.8,00.0,39.4,32.3,11.8,0000.0,0002.86,0005.49,0002.01
2022-09-24 11:16:00,,0829.9,4.99,0.00,30.5,28.6,00.0,39.4,32.2,11.7,0000.0,0002.89,0005.50,0002.02
2022-09-24 11:17:00,,0830.0,5.00,0.00,30.5,28.5,00.0,39.3,32.2,11.9,0000.0,0002.89,0005.56,0002.03
2022-09-24 11:18:00,,0829.9,5.00,0.00,30.4,28.4,00.0,39.3,32.1,11.7,0000.0,0002.95,0005.93,0002.04
2022-09-24 11:19:00,,0830.1,5.00,0.00,30.4,28.5,00.0,39.3,32.1,11.5,0000.0,0002.97,0006.06,0002.05
2022-09-24 11:20:00,,0829.9,4.99,0.00,30.4,28.5,00.0,39.3,32.1,11.6,0000.0,0002.89,0006.51,0002.04
2022-09-24 11:21:00,,0829.8,5.00,0.00,30.4,28.5,00.0,39.3,32.1,11.4,0000.0,0002.90,0006.33,0002.04
2022-09-24 11:22:00,,0829.8,4.98,0.00,30.3,28.5,00.0,39.3,32.1,11.1,0000.0,0002.84,0006.07,0002.04
2022-09-24 11:23:00,,0829.9,5.01,0.00,30.3,28.6,00.0,39.2,32.1,11.2,0000.0,0002.81,0006.46,0002.04
2022-09-24 11:24:00,,0829.9,5.00,0.00,30.4,28.6,00.0,39.2,32.1,11.3,0000.0,0002.84,0006.56,0002.04
2022-09-24 11:25:00,,0830.1,4.99,0.00,30.4,28.7,00.0,39.2,32.1,12.1,0000.0,0002.90,0006.83,0002.04
2022-09-24 11:26:00,,0830.1,5.01,0.00,30.4,28.7,00.0,39.2,32.1,12.5,0000.0,0002.88,0006.81,0002.04
2022-09-24 11:27:00,,0830.1,4.99,0.00,30.4,28.7,00.0,39.2,32.1,12.2,0000.0,0002.85,0007.14,0002.04
2022-09-24 11:28:00,,0830.1,5.01,0.00,30.3,28.7,00.0,39.2,32.1,12.0,0000.0,0002.89,0007.29,0002.04
2022-09-24 11:29:00,,0830.1,5.00,0.00,30.3,28.7,00.0,39.2,32.1,11.9,0000.0,0002.85,0007.11,0002.03
2022-09-24 11:30:00,,0830.1,4.99,0.00,30.3,28.7,00.0,39.2,32.1,11.8,0000.0,0002.81,0006.93,0002.01
2022-09-24 11:31:00,,0830.0,5.02,0.00,30.4,28.7,00.0,39.2,32.2,11.6,0000.0,0002.81,0006.01,0002.02
2022-09-24 11:32:00,,0830.1,4.99,0.00,30.4,28.8,00.0,39.2,32.2,11.5,0000.0,0002.78,0005.94,0002.01
2022-09-24 11:33:00,,0830.1,5.00,0.00,30.4,28.8,00.0,39.2,32.2,11.5,0000.0,0002.77,0005.89,0002.01
2022-09-24 11:34:00,,0830.1,5.01,0.00,30.4,28.8,00.0,39.2,32.2,11.5,0000.0,0002.83,0005.37,0002.02
2022-09-24 11:35:00,,0830.1,5.00,0.00,30.4,28.8,00.0,39.2,32.2,11.4,0000.0,0002.81,0005.25,0002.01
2022-09-24 11:36:00,,0830.1,5.00,0.00,30.4,28.8,00.0,39.2,32.2,11.3,0000.0,0002.78,0005.15,0002.03
2022-09-24 11:37:00,,0830.1,5.00,0.00,30.4,28.8,00.0,39.2,32.2,11.2,0000.0,0002.80,0005.52,0002.03
2022-09-24 11:38:00,,0830.1,5.00,0.00,30.4,28.8,00.0,39.2,32.2,11.2,0000.0,0002.78,0005.15,0002.02
2022-09-24 11:39:00,,0830.1,5.02,0.00,30.4,28.9,00.0,39.2,32.2,11.2,0000.0,0002.72,0004.93,0002.02
2022-09-24 11:40:00,,0830.1,5.00,0.00,30.4,28.9,00.0,39.2,32.2,11.2,0000.0,0002.69,0004.69,0002.03
2022-09-24 11:41:00,,0830.1,4.99,0.00,30.4,28.9,00.0,39.2,32.2,11.1,0000.0,0002.69,0005.30,0002.04
2022-09-24 11:42:00,,0830.1,5.01,0.00,30.4,28.9,00.0,39.2,32.2,11.0,0000.0,0002.66,0005.20,0002.05
2022-09-24 11:43:00,,0830.1,4.99,0.00,30.4,28.9,00.0,39.2,32.2,11.0,0000.0,0002.65,0005.16,0002.06
2022-09-24 11:44:00,,0830.1,5.00,0.00,30.4,28.9,00.0,39.2,32.2,11.2,0000.0,0002.64,0005.22,0002.05
2022-09-24 11:45:00,,0830.1,5.01,0.00,30.4,28.9,00.0,39.2,32.2,11.2,0000.0,0002.60,0005.81,0002.06
2022-09-24 11:46:00,,0830.1,4.99,0.00,30.4,28.9,00.0,39.2,32.2,11.2,0000.0,0002.59,0006.69,0002.06
2022-09-24 11:47:00,,0830.1,5.01,0.00,30.4,28.9,00.0,39.2,32.2,11.1,0000.0,0002.54,0007.03,0002.06
2022-09-24 11:48:00,,0830.1,4.99,0.00,30.4,28.9,00.0,39.2,32.2,11.1,0000.0,0002.54,0006.68,0002.07
2022-09-24 11:49:00,,0830.1,5.01,0.00,30.4,28.9,00.0,39.2,32.2,11.1,0000.0,0002.52,0006.63,0002.08
2022-09-24 11:50:00,,0830.1,5.00,0.00,30.4,28.9,00.0,39.2,32.3,11.0,0000.0,0002.54,0006.73,0002.08
2022-09-24 11:51:00,,0830.1,5.01,0.00,30.4,28.9,00.0,39.2,32.2,11.0,0000.0,0002.58,0006.86,0002.09
2022-09-24 11:52:00,,0830.1,5.00,0.00,30.4,28.9,00.0,39.2,32.3,11.0,0000.0,0002.56,0007.34,0002.08
2022-09-24 11:53:00,,0830.1,5.00,0.00,30.4,28.9,00.0,39.2,32.3,11.0,0000.0,0002.59,0007.43,0002.09
2022-09-24 11:54:00,,0830.0,5.01,0.00,30.5,28.9,00.0,39.2,32.3,11.3,0000.0,0002.65,0007.54,0002.10
2022-09-24 11:55:00,,0830.1,4.99,0.00,30.5,28.9,00.0,39.2,32.2,11.4,0000.0,0002.65,0007.47,0002.10
2022-09-24 11:56:00,,0830.1,5.01,0.00,30.5,28.9,00.0,39.2,32.2,11.3,0000.0,0002.63,0007.29,0002.10
2022-09-24 11:57:00,,0830.0,5.00,0.00,30.5,28.9,00.0,39.2,32.3,11.2,0000.0,0002.64,0006.43,0002.09
2022-09-24 11:58:00,,0830.1,5.01,0.00,30.5,28.9,00.0,39.2,32.3,11.2,0000.0,0002.70,0006.16,0002.09
2022-09-24 11:59:00,,0830.0,4.99,0.00,30.5,28.9,00.0,39.2,32.3,11.1,0000.0,0002.68,0006.15,0002.08
